Weather Roundup
Issued by NWS

Home | Current Version | Previous Version | Text Only | Print | Product List | Glossary On
Versions: 1 2 3 4 5 6 7 8 9 10 11 12 13 14 15 16 17 18 19 20 21 22 23 24 25 26 27 28 29 30 31 32 33 34 35 36 37 38 39 40 41 42 43 44 45 46 47 48 49 50
000
NZUS93 KARX 070810
HRRWXR

CURRENT HOURLY OBSERVATIONS ACROSS
MUCH OF THE UPPER MISSISSIPPI VALLEY
NATIONAL WEATHER SERVICE LA CROSSE WI
300 AM CDT TUE JUL 07 2015


...SOUTHEAST MINNESOTA...


CITY           SKY/WX    TMP DP  RH WIND       PRES   REMARKS
ROCHESTER      CLEAR     54  49  83 N10       30.05R
ROCHESTER/MAYO FAIR      55  50  81 NW9       30.05S
WINONA         CLOUDY    59  52  77 NW7       30.02R
AUSTIN         CLEAR     55  48  76 N8        30.05S
ALBERT LEA     CLEAR     55  50  82 N9        30.06F
DODGE CENTER   CLEAR     54  48  82 N9        30.05F
PRESTON        PTCLDY    55  49  81 N9        30.03S
OWATONNA       CLEAR     52  48  87 NW5       30.08R
FARIBAULT      CLEAR     54  50  87 NW6       30.08R
$$

...ELSEWHERE IN MINNESOTA...


CITY           SKY/WX    TMP DP  RH WIND       PRES   REMARKS
MINNEAPOLIS    CLEAR     56  49  77 NW8       30.08R
INTNL FALLS    CLEAR     45  44  97 CALM      30.09S
DULUTH         CLOUDY    55  42  61 N6        30.07R
RED WING       MOCLDY    57  48  72 CALM      30.05R
REDWOOD FALLS  CLEAR     53  48  83 N6        30.12R
MANKATO        CLEAR     54  46  76 NW8       30.09S
WORTHINGTON    CLEAR     48  45  87 NW7       30.14R
FAIRMONT       CLEAR     54  45  71 N8        30.10S
$$

...SOUTHWEST WISCONSIN...


CITY           SKY/WX    TMP DP  RH WIND       PRES   REMARKS
LA CROSSE      CLOUDY    61  58  90 N7        29.99R FOG
PRAIRIE DU CHI PTCLDY    60  55  83 NW3       29.96S HAZE
BOSCOBEL       PTCLDY    60  56  86 N3        29.96S FOG
LONE ROCK      CLOUDY    60  56  86 N7        29.95S FOG
PLATTEVILLE    MOCLDY    60  57  92 N8        29.94R
FORT MC COY    MOCLDY    52  51  96 CALM      29.99S FOG
CAMP DOUGLAS   CLEAR     56  56 100 NW7       29.97R FOG
VIROQUA        FAIR      56  56 100 N7        29.98S
WIS DELLS      CLOUDY    59  55  87 NW6       29.94S FOG
$$

...ELSEWHERE IN WISCONSIN...


CITY           SKY/WX    TMP DP  RH WIND       PRES   REMARKS
MILWAUKEE      LGT RAIN  59  57  93 N18G26    29.87R FOG
MADISON        CLOUDY    62  57  83 N9        29.92R HAZE
GREEN BAY      CLOUDY    62  57  83 N9        29.92R HAZE
EAU CLAIRE     CLEAR     55  48  77 N6        30.02R
BLACK RVR FLS  CLOUDY    59  58  97 N5        29.99S FOG
MEDFORD        CLEAR     52  49  87 N10G16    30.01R
WAUSAU         MOCLDY    56  53  90 NW8       29.96R FOG
WIS RAPIDS     PTCLDY    57  53  86 N9        29.97R FOG
MARSHFIELD     CLEAR     56  52  86 N9        29.99R FOG
RICE LAKE      CLEAR     53  45  75 N6        30.06R
$$

...NORTHEAST IOWA...


CITY           SKY/WX    TMP DP  RH WIND       PRES   REMARKS
DECORAH          N/A    N/A N/A N/A MISG        N/A
MASON CITY     CLEAR     54  51  90 NW8       30.06S
CHARLES CITY   PTCLDY    57  57 100 N12       30.02F
OELWEIN          N/A     57  57 100 N8        29.99S FOG
$$

...ELSEWHERE IN IOWA...


CITY           SKY/WX    TMP DP  RH WIND       PRES   REMARKS
DES MOINES     PTCLDY    64  53  67 N13       30.01R
IOWA CITY      MOCLDY    64  57  78 N14G21    29.94R HAZE
FORT DODGE     CLEAR     55  48  76 N8        30.07S
$$

...NORTHERN ILLINOIS...


CITY           SKY/WX    TMP DP  RH WIND       PRES   REMARKS
CHICAGO-OHARE  CLOUDY    71  68  90 SW7       29.83S
CHICAGO-MIDWAY CLOUDY    74  69  85 SW5       29.84F
MOLINE         CLOUDY    65  59  81 N8        29.90R HAZE
ROCKFORD       CLOUDY    64  60  87 N15G25    29.89R FOG
PEORIA         CLOUDY    73  70  90 SW3       29.87R
$$

NOTE: "FAIR" INDICATES FEW OR NO CLOUDS BELOW 12,000 FEET WITH NO
SIGNIFICANT WEATHER AND/OR OBSTRUCTIONS TO VISIBILITY. WIND
SPEEDS ARE IN MILES-PER-HOUR.



USA.gov is the U.S. government's official web portal to all federal, state and local government web resources and services.